Weather History for K3MW - October, 2013

Change the Weather History Date:

Thursday, October 10, 2013

  Actual Average Record
Temperature  
Mean Temperature 37 °F -  
Max Temperature 44 °F - - ()
Min Temperature 30 °F - - ()
Degree Days  
Heating Degree Days 28    
Moisture  
Dew Point 25 °F    
Average Humidity 68    
Maximum Humidity 93    
Minimum Humidity 25    
Precipitation  
Precipitation 0.00 in - - ()
Sea Level Pressure  
Sea Level Pressure 29.93 in    
Wind  
Wind Speed 12 mph (South)    
Max Wind Speed 26 mph    
Max Gust Speed 38 mph    
Visibility 6 miles    
Events Thunderstorm    
T = Trace of Precipitation, MM = Missing Value Source: NWS Daily Summary

Daily Weather History Graph

Daily Weather History Graph

Search for Another Location

Airport or City:

Trip Planner

Search our weather history database for the weather conditions in past years. The results will help you decide how hot, cold, wet, or windy it might be!

Date:

Astronomy

Oct. 10, 2013 Rise Set
Actual Time 7:12 AM MDT 6:34 PM MDT
Civil Twilight 6:45 AM MDT 7:01 PM MDT
Nautical Twilight 6:14 AM MDT 7:33 PM MDT
Astronomical Twilight 5:42 AM MDT 8:04 PM MDT
Moon 1:07 PM MDT (10/10) 11:14 PM MDT (10/10)
Length of Visible Light 12h 15m
Length of Day
11h 21m
Waxing Crescent, 36% of the Moon is Illuminated
Oct 10
Waxing Crescent
Oct 11
First Quarter
Oct 18
Full
Oct 26
Last Quarter
Nov 3
New

Hourly Weather History & Observations

Time (MDT) Temp. Windchill Dew Point Humidity Pressure Visibility Wind Dir Wind Speed Gust Speed Precip Events Conditions
12:15 AM 42.8 °F 36.6 °F 19.4 °F 39% 30.10 in 10.0 mi ESE 11.5 mph 18.4 mph N/A   Scattered Clouds
12:35 AM 42.8 °F 36.2 °F 21.2 °F 42% 30.09 in 10.0 mi ESE 12.7 mph - N/A   Scattered Clouds
12:55 AM 41.0 °F 33.5 °F 23.0 °F 49% 30.08 in 10.0 mi ESE 13.8 mph 20.7 mph N/A   Clear
1:15 AM 42.8 °F 35.4 °F 17.6 °F 36% 30.08 in 10.0 mi ESE 15.0 mph 26.5 mph N/A   Scattered Clouds
1:35 AM 42.8 °F 35.1 °F 14.0 °F 31% 30.09 in 10.0 mi SE 16.1 mph 28.8 mph N/A   Mostly Cloudy
1:55 AM 44.6 °F 35.3 °F 10.4 °F 25% 30.07 in 10.0 mi SE 26.5 mph 33.4 mph N/A   Overcast
2:15 AM 44.6 °F 36.6 °F 10.4 °F 25% 30.08 in 10.0 mi SSE 19.6 mph - N/A   Overcast
2:35 AM 42.8 °F 33.5 °F 12.2 °F 29% 30.07 in 10.0 mi SE 23.0 mph 26.5 mph N/A   Overcast
2:55 AM 42.8 °F 34.5 °F 12.2 °F 29% 30.08 in 10.0 mi SE 18.4 mph - N/A   Overcast
3:15 AM 42.8 °F 35.1 °F 14.0 °F 31% 30.07 in 10.0 mi SE 16.1 mph 26.5 mph N/A   Mostly Cloudy
3:35 AM 41.0 °F 33.5 °F 15.8 °F 36% 30.06 in 10.0 mi ESE 13.8 mph - N/A   Overcast
3:55 AM 41.0 °F 33.5 °F 19.4 °F 42% 30.05 in 10.0 mi ESE 13.8 mph 20.7 mph N/A   Scattered Clouds
4:15 AM 41.0 °F 33.9 °F 19.4 °F 42% 30.05 in 10.0 mi ESE 12.7 mph 17.3 mph N/A   Mostly Cloudy
4:35 AM 41.0 °F 34.3 °F 21.2 °F 45% 30.05 in 10.0 mi ESE 11.5 mph 16.1 mph N/A   Overcast
4:55 AM 41.0 °F 33.5 °F 21.2 °F 45% 30.03 in 10.0 mi ESE 13.8 mph 19.6 mph N/A   Mostly Cloudy
5:15 AM 41.0 °F 33.9 °F 19.4 °F 42% 30.02 in 10.0 mi ESE 12.7 mph 18.4 mph N/A   Scattered Clouds
5:35 AM 41.0 °F 33.5 °F 19.4 °F 42% 30.01 in 10.0 mi ESE 13.8 mph - N/A   Clear
5:55 AM 41.0 °F 34.3 °F 19.4 °F 42% 29.99 in 10.0 mi ESE 11.5 mph 19.6 mph N/A   Scattered Clouds
6:15 AM 41.0 °F 32.8 °F 19.4 °F 42% 29.99 in 10.0 mi ESE 16.1 mph 24.2 mph N/A   Mostly Cloudy
6:35 AM 39.2 °F 30.5 °F 21.2 °F 49% 29.99 in 10.0 mi ESE 16.1 mph 21.9 mph N/A   Overcast
6:55 AM 39.2 °F 31.6 °F 23.0 °F 52% 29.99 in 10.0 mi ESE 12.7 mph 19.6 mph N/A   Scattered Clouds
7:15 AM 39.2 °F 31.6 °F 23.0 °F 52% 29.98 in 10.0 mi ESE 12.7 mph 18.4 mph N/A   Clear
7:35 AM 39.2 °F 32.0 °F 23.0 °F 52% 29.99 in 10.0 mi ESE 11.5 mph 19.6 mph N/A   Clear
7:55 AM 39.2 °F 33.0 °F 23.0 °F 52% 29.99 in 10.0 mi SE 9.2 mph 17.3 mph N/A   Clear
8:15 AM 37.4 °F 31.4 °F 23.0 °F 56% 29.98 in 10.0 mi ESE 8.1 mph - N/A   Scattered Clouds
8:35 AM 37.4 °F 30.8 °F 23.0 °F 56% 29.97 in 10.0 mi East 9.2 mph - N/A   Clear
8:55 AM 39.2 °F 32.5 °F 23.0 °F 52% 29.96 in 10.0 mi ESE 10.4 mph - N/A   Clear
9:15 AM 41.0 °F 35.2 °F 23.0 °F 49% 29.95 in 10.0 mi ESE 9.2 mph - N/A   Clear
9:35 AM 41.0 °F 34.7 °F 23.0 °F 49% 29.94 in 10.0 mi ESE 10.4 mph - N/A   Clear
9:55 AM 41.0 °F 35.8 °F 23.0 °F 49% 29.94 in 10.0 mi ESE 8.1 mph - N/A   Scattered Clouds
10:15 AM 41.0 °F 38.0 °F 23.0 °F 49% 29.94 in 10.0 mi ESE 4.6 mph - N/A   Overcast
10:35 AM 42.8 °F 40.1 °F 23.0 °F 46% 29.93 in 10.0 mi ESE 4.6 mph - N/A   Overcast
10:55 AM 41.0 °F 36.4 °F 24.8 °F 53% 29.92 in 10.0 mi ESE 6.9 mph - N/A   Overcast
11:15 AM 37.4 °F 34.9 °F 28.4 °F 70% 29.91 in 10.0 mi West 3.5 mph - N/A   Overcast
11:35 AM 35.6 °F - 30.2 °F 81% 29.90 in 10.0 mi Calm Calm - N/A   Overcast
11:55 AM 35.6 °F - 32.0 °F 87% 29.90 in 1.0 mi Calm Calm - N/A   Overcast
12:15 PM 37.4 °F 32.8 °F 32.0 °F 81% 29.89 in 0.8 mi WNW 5.8 mph - N/A   Overcast
12:35 PM 35.6 °F 29.9 °F 32.0 °F 87% 29.88 in 0.2 mi NW 6.9 mph - N/A   Overcast
12:55 PM 35.6 °F 30.7 °F 32.0 °F 87% 29.87 in 0.2 mi NW 5.8 mph - N/A   Overcast
1:15 PM 35.6 °F - 32.0 °F 87% 29.88 in 0.2 mi Calm Calm - N/A   Overcast
1:35 PM 35.6 °F 32.8 °F 33.8 °F 93% 29.87 in 0.2 mi West 3.5 mph - N/A   Overcast
1:55 PM 35.6 °F 28.6 °F 32.0 °F 87% 29.87 in 0.2 mi West 9.2 mph - N/A   Overcast
2:15 PM 32.0 °F 21.2 °F 30.2 °F 93% 29.87 in 0.2 mi WSW 16.1 mph 24.2 mph N/A   Overcast
2:35 PM 32.0 °F 24.2 °F 30.2 °F 93% 29.87 in 0.2 mi WSW 9.2 mph - N/A   Overcast
2:55 PM 32.0 °F 23.6 °F 30.2 °F 93% 29.88 in 0.2 mi West 10.4 mph - N/A Thunderstorm Overcast
3:15 PM 32.0 °F 23.0 °F 30.2 °F 93% 29.88 in 0.2 mi WNW 11.5 mph 17.3 mph N/A   Overcast
3:35 PM 32.0 °F 22.1 °F 30.2 °F 93% 29.88 in 0.2 mi West 13.8 mph - N/A Thunderstorm Overcast
3:55 PM 32.0 °F 23.6 °F 30.2 °F 93% 29.88 in 0.2 mi WNW 10.4 mph - N/A   Overcast
4:15 PM 32.0 °F 23.6 °F 30.2 °F 93% 29.88 in 0.2 mi West 10.4 mph 19.6 mph N/A   Overcast
4:35 PM 32.0 °F 23.6 °F 30.2 °F 93% 29.87 in 0.2 mi SSW 10.4 mph - N/A   Overcast
4:55 PM 32.0 °F 28.7 °F 30.2 °F 93% 29.86 in 0.5 mi West 3.5 mph - N/A   Overcast
5:15 PM 32.0 °F - 30.2 °F 93% 29.87 in 0.2 mi Calm Calm - N/A   Overcast
5:35 PM 32.0 °F - 30.2 °F 93% 29.85 in 0.5 mi Calm Calm - N/A   Overcast
5:55 PM 32.0 °F 26.4 °F 24.8 °F 75% 29.85 in 10.0 mi WSW 5.8 mph - N/A   Overcast
6:15 PM 32.0 °F 25.6 °F 24.8 °F 75% 29.83 in 10.0 mi NNW 6.9 mph - N/A   Overcast
6:35 PM 32.0 °F 23.6 °F 28.4 °F 87% 29.84 in 0.2 mi South 10.4 mph 16.1 mph N/A   Overcast
6:55 PM 32.0 °F 25.6 °F 30.2 °F 93% 29.84 in 0.2 mi WSW 6.9 mph - N/A   Overcast
7:15 PM 32.0 °F 26.4 °F 30.2 °F 93% 29.82 in 0.2 mi WNW 5.8 mph - N/A   Overcast
7:35 PM 32.0 °F 24.2 °F 30.2 °F 93% 29.83 in 0.2 mi West 9.2 mph - N/A   Overcast
7:55 PM 32.0 °F 23.6 °F 30.2 °F 93% 29.83 in 0.2 mi WSW 10.4 mph - N/A   Overcast
8:15 PM 32.0 °F 24.2 °F 30.2 °F 93% 29.83 in 0.2 mi WSW 9.2 mph 18.4 mph N/A   Overcast
8:35 PM 32.0 °F 22.1 °F 30.2 °F 93% 29.82 in 0.2 mi West 13.8 mph 23.0 mph N/A   Overcast
8:55 PM 32.0 °F - 28.4 °F 87% 29.80 in 0.2 mi North - - N/A   Overcast
9:15 PM 30.2 °F - 28.4 °F 93% 29.82 in 0.2 mi North - - N/A   Overcast
9:35 PM 32.0 °F 20.5 °F 28.4 °F 87% 29.82 in 0.2 mi WSW 18.4 mph 29.9 mph N/A   Overcast
9:55 PM 30.2 °F 16.8 °F 28.4 °F 93% 29.82 in - WSW 23.0 mph 33.4 mph N/A   Overcast
10:15 PM 30.2 °F 17.1 °F 28.4 °F 93% 29.82 in - WSW 21.9 mph 28.8 mph N/A   Overcast
10:35 PM 30.2 °F 17.8 °F 28.4 °F 93% 29.81 in - West 19.6 mph 29.9 mph N/A   Overcast
10:55 PM 30.2 °F 18.5 °F 28.4 °F 93% 29.83 in - West 17.3 mph 35.7 mph N/A   Overcast
11:15 PM 30.2 °F 17.1 °F 28.4 °F 93% 29.83 in - WSW 21.9 mph 31.1 mph N/A   Overcast
11:35 PM 30.2 °F 15.9 °F 28.4 °F 93% 29.82 in - WSW 26.5 mph 38.0 mph N/A   Overcast
11:55 PM 30.2 °F 17.4 °F 28.4 °F 93% 29.83 in - WSW 20.7 mph 36.8 mph N/A   Overcast